| time (UTC) | temp C | wind direction | speed KPH | gust KPH | rain 1hr cm | rain 24hr cm | rain mn cm | humidity % | barometer mb |
| 20260902060704 | 16 | 110 | 3.2 | 4.8 | 0.00 | 0.00 | 0.00 | 87 | 1009.8 |
| 20260902060204 | 16 | 82 | 3.2 | 11.3 | 0.00 | 0.00 | 0.00 | 87 | 1009.8 |
| 20260902053704 | 16 | 84 | 1.6 | 4.8 | 0.00 | 0.00 | 0.00 | 87 | 1010.0 |
| 20260902053204 | 16 | 111 | 3.2 | 11.3 | 0.00 | 0.00 | 0.00 | 87 | 1010.0 |
| 20260902050204 | 16 | 122 | 3.2 | 9.7 | 0.00 | 0.00 | 0.00 | 87 | 1010.1 |
| 20260902043203 | 16 | 92 | 1.6 | 4.8 | 0.00 | 0.00 | 0.00 | 87 | 1010.2 |
| 20260902040704 | 16 | 108 | 3.2 | 4.8 | 0.00 | 0.00 | 0.00 | 87 | 1010.2 |
| 20260902040203 | 16 | 90 | 3.2 | 4.8 | 0.00 | 0.00 | 0.00 | 86 | 1010.2 |
| 20260902033704 | 16 | 128 | 3.2 | 4.8 | 0.00 | 0.00 | 0.00 | 86 | 1010.2 |
| 20260902033204 | 16 | 124 | 3.2 | 8.0 | 0.00 | 0.00 | 0.00 | 86 | 1010.3 |
| 20260902030704 | 16 | 170 | 3.2 | 9.7 | 0.00 | 0.00 | 0.00 | 84 | 1010.1 |
| 20260902030204 | 16 | 162 | 3.2 | 16.1 | 0.00 | 0.00 | 0.00 | 83 | 1010.0 |
| 20260902023704 | 18 | 216 | 8.0 | 16.1 | 0.00 | 0.00 | 0.00 | 79 | 1009.8 |
| 20260902020704 | 18 | 155 | 1.6 | 8.0 | 0.00 | 0.00 | 0.00 | 76 | 1009.7 |
| 20260902020204 | 18 | 158 | 1.6 | 11.3 | 0.00 | 0.00 | 0.00 | 76 | 1009.6 |
| 20260902013704 | 18 | 153 | 1.6 | 4.8 | 0.00 | 0.00 | 0.00 | 77 | 1009.7 |
| 20260902010704 | 18 | 224 | 1.6 | 12.9 | 0.00 | 0.00 | 0.00 | 74 | 1009.7 |
| 20260902010204 | 18 | 198 | 3.2 | 12.9 | 0.00 | 0.00 | 0.00 | 74 | 1009.7 |
| 20260902003704 | 18 | 159 | 4.8 | 11.3 | 0.00 | 0.00 | 0.00 | 74 | 1009.7 |
| 20260902003204 | 18 | 173 | 3.2 | 11.3 | 0.00 | 0.00 | 0.00 | 75 | 1009.8 |
| 20260902000703 | 18 | 254 | 1.6 | 4.8 | 0.00 | 0.00 | 0.00 | 75 | 1009.7 |
| 20260902000204 | 18 | 223 | 4.8 | 14.5 | 0.00 | 0.00 | 0.00 | 75 | 1009.7 |
| 20260901233704 | 18 | 210 | 4.8 | 14.5 | 0.00 | 0.00 | 0.00 | 74 | 1009.7 |
| 20260901230704 | 18 | 186 | 6.4 | 11.3 | 0.00 | 0.00 | 0.00 | 75 | 1009.7 |
| 20260901230204 | 18 | 210 | 1.6 | 16.1 | 0.00 | 0.00 | 0.00 | 76 | 1009.7 |
| 20260901223704 | 18 | 185 | 1.6 | 11.3 | 0.00 | 0.00 | 0.00 | 75 | 1009.8 |
| 20260901220704 | 18 | 232 | 4.8 | 12.9 | 0.00 | 0.00 | 0.00 | 75 | 1009.8 |
| 20260901220204 | 18 | 208 | 6.4 | 19.3 | 0.00 | 0.00 | 0.00 | 74 | 1009.8 |
| 20260901213703 | 18 | 255 | 4.8 | 12.9 | 0.00 | 0.00 | 0.00 | 74 | 1009.7 |
| 20260901213204 | 18 | 226 | 8.0 | 19.3 | 0.00 | 0.00 | 0.00 | 74 | 1009.7 |
| 20260901210205 | 18 | 218 | 3.2 | 14.5 | 0.00 | 0.00 | 0.00 | 74 | 1009.8 |
| 20260901203704 | 18 | 150 | 1.6 | 4.8 | 0.00 | 0.00 | 0.00 | 75 | 1010.0 |
| 20260901203204 | 18 | 130 | 3.2 | 11.3 | 0.00 | 0.00 | 0.00 | 76 | 1010.0 |
| 20260901200704 | 18 | 116 | 0.0 | 4.8 | 0.00 | 0.00 | 0.00 | 75 | 1010.0 |
| 20260901200204 | 18 | 119 | 3.2 | 11.3 | 0.00 | 0.00 | 0.00 | 75 | 1010.0 |
| 20260901193704 | 19 | 144 | 3.2 | 4.8 | 0.00 | 0.00 | 0.00 | 75 | 1010.1 |
| 20260901193205 | 18 | 168 | 4.8 | 9.7 | 0.00 | 0.00 | 0.00 | 75 | 1010.1 |
| 20260901190704 | 18 | 119 | 1.6 | 4.8 | 0.00 | 0.00 | 0.00 | 75 | 1010.2 |
| 20260901183705 | 18 | 238 | 4.8 | 12.9 | 0.00 | 0.00 | 0.00 | 76 | 1010.4 |
| 20260901183204 | 18 | 174 | 4.8 | 11.3 | 0.00 | 0.00 | 0.00 | 75 | 1010.3 |
| 20260901180704 | 18 | 195 | 3.2 | 9.7 | 0.00 | 0.00 | 0.00 | 77 | 1010.2 |
| 20260901173703 | 17 | 160 | 4.8 | 12.9 | 0.00 | 0.00 | 0.00 | 79 | 1010.1 |
| 20260901173203 | 17 | 136 | 3.2 | 11.3 | 0.00 | 0.00 | 0.00 | 79 | 1009.9 |
| 20260901170704 | 16 | 165 | 1.6 | 8.0 | 0.00 | 0.00 | 0.00 | 82 | 1010.1 |
| 20260901170204 | 16 | 162 | 3.2 | 9.7 | 0.00 | 0.00 | 0.00 | 82 | 1010.1 |
| 20260901163704 | 16 | 151 | 4.8 | 14.5 | 0.00 | 0.00 | 0.00 | 84 | 1010.3 |
| 20260901163204 | 16 | 163 | 3.2 | 16.1 | 0.00 | 0.00 | 0.00 | 84 | 1010.3 |
| 20260901160204 | 16 | 148 | 4.8 | 12.9 | 0.00 | 0.00 | 0.00 | 84 | 1010.2 |
| 20260901153704 | 15 | 178 | 1.6 | 4.8 | 0.00 | 0.00 | 0.00 | 86 | 1010.5 |
| 20260901153204 | 15 | 168 | 3.2 | 16.1 | 0.00 | 0.00 | 0.00 | 86 | 1010.4 |
| 20260901150204 | 15 | 170 | 4.8 | 9.7 | 0.00 | 0.00 | 0.00 | 86 | 1010.4 |
| 20260901143704 | 15 | 162 | 3.2 | 12.9 | 0.00 | 0.00 | 0.00 | 86 | 1010.1 |
| 20260901133704 | 15 | 236 | 3.2 | 8.0 | 0.00 | 0.00 | 0.00 | 86 | 1009.7 |
| 20260901130704 | 14 | 120 | 1.6 | 4.8 | 0.00 | 0.00 | 0.00 | 85 | 1009.7 |
| 20260901130204 | 15 | 120 | 1.6 | 8.0 | 0.00 | 0.00 | 0.00 | 85 | 1009.6 |
| 20260901123703 | 15 | 153 | 1.6 | 3.2 | 0.00 | 0.00 | 0.00 | 84 | 1009.5 |
| 20260901123204 | 15 | 153 | 1.6 | 4.8 | 0.00 | 0.00 | 0.00 | 83 | 1009.5 |
| 20260901120205 | 15 | 145 | 1.6 | 4.8 | 0.00 | 0.00 | 0.00 | 85 | 1009.2 |
| 20260901113704 | 15 | 24 | 0.0 | 0.0 | 0.00 | 0.00 | 0.00 | 85 | 1008.9 |
| 20260901113204 | 15 | 24 | 0.0 | 0.0 | 0.00 | 0.00 | 0.00 | 85 | 1009.0 |
| 20260901110204 | 15 | 24 | 0.0 | 0.0 | 0.00 | 0.00 | 0.00 | 84 | 1008.9 |
| 20260901103704 | 15 | 24 | 0.0 | 0.0 | 0.00 | 0.00 | 0.00 | 83 | 1008.9 |
| 20260901103204 | 15 | 24 | 0.0 | 0.0 | 0.00 | 0.00 | 0.00 | 84 | 1008.8 |
| 20260901100705 | 15 | 24 | 0.0 | 0.0 | 0.00 | 0.00 | 0.00 | 83 | 1008.8 |
| 20260901100204 | 15 | 24 | 0.0 | 0.0 | 0.00 | 0.00 | 0.00 | 82 | 1008.6 |
| 20260901093704 | 16 | 24 | 0.0 | 0.0 | 0.00 | 0.00 | 0.00 | 81 | 1008.5 |
| 20260901090704 | 16 | 24 | 0.0 | 0.0 | 0.00 | 0.00 | 0.00 | 81 | 1008.5 |
| 20260901090204 | 16 | 24 | 0.0 | 0.0 | 0.00 | 0.00 | 0.00 | 80 | 1008.5 |
| 20260901083703 | 17 | 24 | 0.0 | 0.0 | 0.00 | 0.00 | 0.00 | 79 | 1008.4 |
| 20260901083204 | 17 | 24 | 0.0 | 0.0 | 0.00 | 0.00 | 0.00 | 78 | 1008.4 |
| 20260901080204 | 17 | 24 | 0.0 | 4.8 | 0.00 | 0.00 | 0.00 | 77 | 1008.1 |
| 20260901073704 | 17 | 24 | 1.6 | 4.8 | 0.00 | 0.00 | 0.00 | 76 | 1008.1 |
| 20260901073204 | 17 | 26 | 1.6 | 4.8 | 0.00 | 0.00 | 0.00 | 76 | 1008.1 |
| 20260901070205 | 17 | 21 | 0.0 | 3.2 | 0.00 | 0.00 | 0.00 | 75 | 1008.1 |